Fargo, ND

12:22 AM CST on December 11, 2019 (GMT -0600)
Hector International

Weather History for KFAR - October, 2019

Change the Weather History Date:

Tuesday, October 22, 2019

  Actual Average Record
Temperature  
Mean Temperature 39 °F 43 °F  
Max Temperature 43 °F 53 °F 82 °F (1901)
Min Temperature 35 °F 33 °F 10 °F (1936)
Degree Days  
Heating Degree Days 26 22  
Month to date heating degree days 441 384  
Since 1 July heating degree days 656 654  
Cooling Degree Days 0 0  
Month to date cooling degree days 0 0  
Year to date cooling degree days 527 548  
Moisture  
Dew Point 31 °F    
Average Humidity 73    
Maximum Humidity 89    
Minimum Humidity 62    
Precipitation  
Precipitation T in 0.07 in 0.71 in (1966)
Month to date precipitation 3.78 1.67  
Year to date precipitation 28.48 20.27  
Snow  
Snow 0.00 in 0.00 in 1.00 in (1966)
Month to date snowfall 4.5 0.3  
Since 1 July snowfall 4.5 0.3  
Since 1 September snowfall 4.5 0.3  
Snow Depth 0.00 in    
Sea Level Pressure  
Sea Level Pressure 29.68 in    
Wind  
Wind Speed 21 mph ()    
Max Wind Speed 37 mph    
Max Gust Speed 52 mph    
Visibility 10.0 miles    
Events      
T = Trace of Precipitation, MM = Missing Value Source: Averaged Metar Reports

Daily Weather History Graph

Daily Weather History Graph

Search for Another Location

Airport or City:

Astronomy

Oct. 22, 2019 Rise Set
Actual Time 7:54 AM CDT 6:27 PM CDT
Civil Twilight 7:23 AM CDT 6:58 PM CDT
Nautical Twilight 6:48 AM CDT 7:34 PM CDT
Astronomical Twilight 6:13 AM CDT 8:09 PM CDT
Moon 12:34 AM CDT (10/22) 4:07 PM CDT (10/22)
Length of Visible Light 11h 34m
Length of Day
10h 32m
Last Quarter, 37% of the Moon is Illuminated
Oct 22
Last Quarter
Oct 27
New
Nov 4
First Quarter
Nov 12
Full
Nov 19
Last Quarter

Hourly Weather History & Observations

Time (CDT) Temp. Windchill Dew Point Humidity Pressure Visibility Wind Dir Wind Speed Gust Speed Precip Events Conditions
12:53 AM 39.0 °F 26.8 °F 36.0 °F 89% 29.61 in 10.0 mi NNW 32.2 mph 44.9 mph N/A   Overcast
1:53 AM 39.0 °F 28.0 °F 35.1 °F 86% 29.61 in 10.0 mi NNW 25.3 mph 39.1 mph N/A   Overcast
2:53 AM 39.0 °F 27.4 °F 35.1 °F 86% 29.62 in 10.0 mi NNW 28.8 mph 51.8 mph N/A   Overcast
3:39 AM 39.0 °F 27.2 °F 35.1 °F 86% 29.59 in 10.0 mi NNW 29.9 mph 40.3 mph N/A   Overcast
3:53 AM 39.0 °F 27.6 °F 34.0 °F 82% 29.61 in 10.0 mi NNW 27.6 mph 43.7 mph N/A   Overcast
4:53 AM 39.0 °F 29.0 °F 33.1 °F 79% 29.62 in 10.0 mi NW 20.7 mph 32.2 mph N/A   Overcast
5:53 AM 37.9 °F 26.6 °F 32.0 °F 79% 29.62 in 10.0 mi NW 25.3 mph 40.3 mph N/A   Overcast
6:53 AM 37.0 °F 25.1 °F 32.0 °F 82% 29.64 in 10.0 mi NW 26.5 mph 36.8 mph N/A   Overcast
7:53 AM 37.0 °F 26.7 °F 30.9 °F 79% 29.64 in 10.0 mi NW 19.6 mph 34.5 mph N/A   Overcast
8:53 AM 37.9 °F 27.1 °F 28.9 °F 70% 29.65 in 10.0 mi NW 23.0 mph 39.1 mph N/A   Overcast
9:53 AM 37.0 °F 24.9 °F 28.0 °F 70% 29.66 in 10.0 mi NW 27.6 mph 38.0 mph 0.00 in   Overcast
10:53 AM 37.9 °F 26.6 °F 28.9 °F 70% 29.67 in 10.0 mi NW 25.3 mph 39.1 mph N/A   Overcast
11:53 AM 39.0 °F 28.3 °F 30.0 °F 70% 29.68 in 10.0 mi NW 24.2 mph 36.8 mph N/A   Overcast
12:53 PM 39.9 °F 29.2 °F 30.9 °F 70% 29.67 in 10.0 mi NW 25.3 mph 39.1 mph N/A   Overcast
1:53 PM 41.0 °F 30.7 °F 30.9 °F 67% 29.68 in 10.0 mi NW 25.3 mph 40.3 mph N/A   Overcast
2:53 PM 41.0 °F 30.9 °F 30.9 °F 67% 29.68 in 10.0 mi NW 24.2 mph 35.7 mph N/A   Overcast
3:05 PM 42.1 °F 33.3 °F 32.0 °F 67% 29.66 in 10.0 mi NW 19.6 mph 31.1 mph N/A   Overcast
3:53 PM 43.0 °F 34.0 °F 32.0 °F 65% 29.69 in 10.0 mi NW 21.9 mph 38.0 mph N/A   Overcast
4:53 PM 43.0 °F 33.5 °F 30.9 °F 62% 29.70 in 10.0 mi WNW 24.2 mph 35.7 mph N/A   Overcast
5:53 PM 43.0 °F 35.4 °F 30.9 °F 62% 29.71 in 10.0 mi NW 16.1 mph 28.8 mph N/A   Overcast
6:53 PM 42.1 °F 34.9 °F 30.9 °F 65% 29.74 in 10.0 mi NW 13.8 mph - N/A   Overcast
7:53 PM 41.0 °F 33.9 °F 30.9 °F 67% 29.75 in 10.0 mi NNW 12.7 mph - N/A   Overcast
8:53 PM 41.0 °F 33.5 °F 30.9 °F 67% 29.76 in 10.0 mi NNW 13.8 mph - N/A   Overcast
9:53 PM 39.9 °F 33.4 °F 30.0 °F 68% 29.77 in 10.0 mi NW 10.4 mph - N/A   Overcast
10:53 PM 39.9 °F 32.5 °F 28.9 °F 65% 29.77 in 10.0 mi NW 12.7 mph - N/A   Overcast
11:53 PM 37.0 °F 31.0 °F 28.9 °F 73% 29.77 in 10.0 mi WNW 8.1 mph - N/A   Overcast